Regional Weather Roundup
Issued by NWS Grand Forks, ND

Home | Current Version | Previous Version | Text Only | Print | Product List | Glossary On
Versions: 1 2 3 4 5 6 7 8 9 10 11 12 13 14 15 16 17 18 19 20 21 22 23 24 25 26 27 28 29 30 31 32 33 34 35 36 37 38 39 40 41 42 43 44 45 46 47 48 49 50
000
ASUS43 KFGF 270431
RWRFGF
PRAIRIE TO PINES  WEATHER ROUNDUP
NATIONAL WEATHER SERVICE EASTERN NORTH DAKOTA/GRAND FORKS ND
1100 PM CDT WED JUL 26 2017

 **SATELLITE DATA USED TO AUGMENT SKY COVER AT AUTOMATED STATIONS**
 *****  WEATHER ACROSS EASTERN NORTH DAKOTA  *****

CITY           SKY/WX    TMP DP  RH WIND       PRES   REMARKS
GRAND FORKS    FAIR      65  61  87 NW6       30.07S
GRAND FRKS AFB FAIR      61  58  90 NW3       30.09R
DEVILS LAKE    FAIR      66  58  75 CALM      30.13R
FARGO          FAIR      67  61  81 CALM      30.08R
WAHPETON ARPT  FAIR      64  59  82 N5        30.09S
$$

 ***** WEATHER ACROSS CENTRAL AND WESTERN NORTH DAKOTA  *****

CITY           SKY/WX    TMP DP  RH WIND       PRES   REMARKS
BISMARCK       FAIR      70  55  59 E8        30.12R
MINOT          FAIR      67  55  65 E7        30.11S
JAMESTOWN      FAIR      64  58  80 CALM      30.12R
MINOT AFB      FAIR      64  56  74 SE5       30.10S
GARRISON         N/A     69  54  58 E12       30.12R
WILLISTON      FAIR      78  53  41 E12       30.08R
DICKINSON      FAIR      70  50  49 E10       30.10R
HETTINGER      FAIR      72  53  51 E10       30.13R
$$

 *****  OTHER AIRPORT OBSERVATIONS IN OUR AREA  *****

CITY           SKY/WX    TMP DP  RH WIND       PRES   REMARKS
WALHALLA       NOT AVBL
GRAFTON AIRPOR FAIR      66  64  94 CALM      30.10S
VALLEY CITY AR FAIR      63  63 100 CALM      30.14R
CANDO          NOT AVBL
CAVALIER APRT  FAIR      63  61  94 CALM      30.08S
GWINNER        CLEAR     63  59  88 CALM      30.11R
SHEYENNE NWR     N/A     67  59  75 N2        29.95S
ROLLA            N/A     57  57 100 CALM      30.15R
 ***** THE ABOVE OBSERVATIONS ARE NON NWS ARE NOT QUALITY
       CONTROLLED AND MAY MIS-REPORT RAIN FOR SNOW...
$$

  *****  WEATHER ACROSS NORTHERN MINNESOTA  *****

CITY           SKY/WX    TMP DP  RH WIND       PRES   REMARKS
FLAG ISLAND    FAIR      72  61  68 NW7       30.05R
WARROAD        FAIR      66  61  82 NW3       30.07S
ROSEAU         FAIR      66  61  82 CALM      30.07S
HALLOCK        FAIR      63  61  94 CALM      30.08R
THF RVR FALLS  FAIR      64  60  87 NW5       30.09S
BAUDETTE       FAIR      62  60  93 W6        30.05S
WASKISH        FAIR      61  57  88 CALM      30.06S
CROOKSTON      FAIR      64  61  88 N3        30.09R
STEPHEN NDAWN    N/A     64  59  82 W3          N/A
GREENBUSH NDAW   N/A     63  59  88 W1          N/A
$$
  *****  WEATHER ACROSS CENTRAL AND WEST MINNESOTA  *****

CITY           SKY/WX    TMP DP  RH WIND       PRES   REMARKS
FOSSTON        FAIR      59  55  88 CALM      30.10R
BEMIDJI        FAIR      62  58  86 NW5       30.07S
PARK RAPIDS    FAIR      64  60  87 NW6       30.08R
ELBOW LAKE     FOG       67  63  86 CALM      30.09S VSB 1/4
WADENA         FAIR      63  59  88 CALM      30.08S
DETROIT LAKES  FAIR      66  61  82 NW5       30.11S
MOORHEAD       FAIR      64  61  88 CALM      30.09S
FERGUS FALLS   FAIR      66  61  82 CALM      30.08S
MORRIS MN      FAIR      68  63  83 N7        30.07S
STAPLES        FAIR      64  59  82 CALM      30.08R
$$
  *****  WEATHER ELSEWHERE ACROSS MINNESOTA  *****

CITY           SKY/WX    TMP DP  RH WIND       PRES   REMARKS
DULUTH         FAIR      66  60  81 N5        30.03R
INTRNTL FALLS  MOCLDY    61  58  90 CALM      30.03S
ELY            FAIR      59  57  94 CALM      30.04S
CLOQUET        FAIR      66  57  72 NW3       30.04R
WHEATON        FAIR      66  61  82 CALM      30.10R
BRAINERD       FAIR      63  60  90 CALM      30.06R
HIBBING        FAIR      58  57  97 CALM      30.05R
ALEXANDRIA     FAIR      68  62  81 N6        30.09S
SAINT CLOUD    FAIR      66  64  93 CALM      30.04R
MINNEAPOLIS    FAIR      75  62  64 CALM      30.02R
$$

  *****  WEATHER ACROSS SOUTH DAKOTA  *****

CITY           SKY/WX    TMP DP  RH WIND       PRES   REMARKS
SIOUX FALLS    FAIR      68  63  84 N5        30.08R
BROOKINGS      FAIR      67  62  84 CALM      30.10R
WATERTOWN      FAIR      66  60  81 N5        30.10R
HURON          FAIR      65  62  90 N3        30.08S
SISSETON         N/A     66  62  87 NW3       30.08R
ABERDEEN       FAIR      69  61  75 NE5       30.10R
MITCHELL       FAIR      69  64  84 CALM      30.09R
PIERRE         FAIR      72  54  53 SE6       30.10R
MOBRIDGE       FAIR      73  57  57 E9        30.08R
RAPID CITY     FAIR      72  49  44 SE9       30.16R
$$

  *****  SOME WEATHER IN NEARBY STATES *****

CITY           SKY/WX    TMP DP  RH WIND       PRES   REMARKS
GLASGOW MT     FAIR      81  45  28 E16       30.00R
GREAT FALLS MT FAIR      78  39  24 S9        30.02R
CHEYENNE WY    CLOUDY    66  56  70 SE3       30.33S
SCOTTSBLUFF NE CLOUDY    73  60  63 NE6       30.20R
OMAHA NE       FAIR      73  70  90 CALM      30.01R
DES MOINES IA  CLOUDY    75  73  93 N6        29.98R
DAVENPORT IA   CLOUDY    72  70  93 CALM      29.99R
CHICAGO IL     CLOUDY    78  70  76 S3        29.96S
EAU CLAIRE WI  FAIR      65  63  93 CALM      30.00R
LA CROSSE WI   MOCLDY    76  73  91 N5        29.97S
$$

  *****  SOME NATIONAL WEATHER *****

CITY           SKY/WX    TMP DP  RH WIND       PRES   REMARKS
LA GUARDIA NY  MOCLDY    70  58  65 S6        30.13S
RALEIGH NC     MOCLDY    80  69  69 S7        30.11R
ATLANTA GA     FAIR      76  65  68 S3        30.12R
NEW ORLEANS LA FAIR      82  74  76 S5        30.07R
OKLAHOMA CITY  MOCLDY    85  70  60 S10       29.98R
ALBUQUERQUE NM MOCLDY    87  52  29 SE6       30.14R
SALT LAKE CITY TSTM      69  63  81 W23G44    30.18R
LOS ANGELES CA FAIR      69  64  84 W8        29.96R
BOISE ID       FAIR      80  56  43 W9        30.07R
SEATTLE WA     FAIR      72  56  57 W5        30.03S
$$

*** WEATHER ACROSS MANITOBA...SASKATCHEWAN AND ONTARIO ***
                ***ONTARIO***

CITY           SKY/WX    TMP DP  RH WIND       PRES   REMARKS
GERALDTON      CLEAR     63  55  77 N5        29.98R
THUNDER BAY    PTCLDY    64  57  77 W3        29.97R
SIOUX LOOKOUT  PTCLDY    57  57 100 CALM      30.01R
TORONTO        LGT RAIN  68  63  83 CALM      29.99F
BIG TROUT LK   CLEAR     59  50  72 N6        29.99R
PICKLE LAKE    NOT AVBL
DRYDEN         CLEAR     68  59  73 W6        30.03R
KENORA         PTCLDY    70  57  64 NW6       30.05S
$$
                *** MANITOBA***

CITY           SKY/WX    TMP DP  RH WIND       PRES   REMARKS
BRANDON        PTCLDY    63  59  88 W6        30.10R
DAUPHIN        CLEAR     64  63  94 W2        30.07R
ISLAND LAKE    NOT AVBL
PILOT MOUND      N/A     63  57  82 SW3         N/A
THE PAS        CLOUDY    72  61  68 W7        30.02S
THOMPSON       PTCLDY    61  54  77 CALM      29.98S
WINNIPEG       PTCLDY    63  61  94 W6        30.06S
LYNN LAKE      CLOUDY    63  61  94 VRB2      29.95S
CHURCHILL      PTCLDY    61  54  77 SW9       29.90S
GILLAM         PTCLDY    64  52  63 SW6       29.96S
$$
                ***SASKATCHEWAN***

CITY           SKY/WX    TMP DP  RH WIND       PRES   REMARKS
ESTEVAN        PTCLDY    63  54  72 E6        30.10R
KINDERSLEY     PTCLDY    66  54  63 E13       30.01S
LLOYDMINSTER   PTCLDY    66  55  68 SE12      30.01S
PRINCE ALBERT  MOCLDY    59  55  88 NE2       30.06S
REGINA         CLEAR     72  52  49 E10       30.07S
YORKTON        CLEAR     64  59  82 E2        30.10S
N. BATTLEFORD  CLEAR     63  54  72 E9        30.05S
LA RONGE       MOCLDY    64  55  72 S3        30.00R
SASKATOON      CLEAR     64  55  72 E8        30.06S
SWIFT CURRENT  CLEAR     70  50  49 SE9       30.05S
$$
NOTE: THESE ARE AUTOMATED STATIONS WITH LIMITED QUALITY CONTROL
      "FAIR" INDICATES FEW OR NO CLOUDS BELOW 12,000 FEET WITH NO
      SIGNIFICANT WEATHER AND/OR OBSTRUCTIONS TO VISIBILITY.
      SKY/WX - SKY CONDITION AND SIGNIFICANT WEATHER.
      TMP - AIR TEMPERATURE.    DP   - DEWPOINT TEMPERATURE.
      RH  - RELATIVE HUMIDITY.  PRES - PRESSURE.
      HX  - HEAT INDEX.         WCI  - WIND CHILL INDEX.
$




USA.gov is the U.S. government's official web portal to all federal, state and local government web resources and services.